Location: Unspecified
(22.6800°N, 112.2000°E)
Time: 13:33:32
(UTC+08:00)

Transit 2A - Pass Details

Date: 05 August 2021
Orbit: 594 x 964 km, 66.7° (Epoch: 21 September)

Event Time Altitude Azimuth Distance (km) Brightness Sun altitude
Rises 16:29:15 0° 317° (NW) 3,455 10.0 35.4°
Reaches altitude 10° 16:32:08 10° 303° (WNW) 2,569 9.8 34.8°
Maximum altitude 16:36:46 23° 253° (WSW) 1,850 9.5 33.7°
Drops below altitude 10° 16:41:35 10° 203° (SSW) 2,675 9.1 32.6°
Sets 16:44:42 0° 189° (S) 3,631 9.5 31.9°
